Lincoln, NE

9:10 AM CDT on April 21, 2018 (GMT -0500)
Lincoln Municipal

Weather History for KLNK - March, 2012

Change the Weather History Date:

Thursday, March 29, 2012

  Actual Average Record
Temperature  
Mean Temperature 65 °F 45 °F  
Max Temperature 72 °F 58 °F 89 °F (1986)
Min Temperature 57 °F 32 °F 12 °F (1969)
Degree Days  
Heating Degree Days 0 20  
Month to date heating degree days 326 733  
Since 1 July heating degree days 4720 5436  
Cooling Degree Days 0 0  
Month to date cooling degree days 19 0  
Year to date cooling degree days 19 0  
Growing Degree Days 14 (Base 50)    
Moisture  
Dew Point 54 °F    
Average Humidity 72    
Maximum Humidity 100    
Minimum Humidity 44    
Precipitation  
Precipitation 0.00 in 0.08 in 1.34 in (1976)
Month to date precipitation 0.89 1.76  
Year to date precipitation 3.15 3.17  
Snow  
Snow 0.00 in 0.10 in - ()
Month to date snowfall 0.0 4.5  
Since 1 July snowfall 18.8 24.2  
Snow Depth 0.00 in    
Sea Level Pressure  
Sea Level Pressure 29.77 in    
Wind  
Wind Speed 11 mph (East)    
Max Wind Speed 22 mph    
Max Gust Speed 28 mph    
Visibility 8 miles    
Events      
T = Trace of Precipitation, MM = Missing Value Source: NWS Daily Summary

Daily Weather History Graph

Daily Weather History Graph

Search for Another Location

Airport or City:

Astronomy

Mar. 29, 2012 Rise Set
Actual Time 7:14 AM CDT 7:49 PM CDT
Civil Twilight 6:47 AM CDT 8:16 PM CDT
Nautical Twilight 6:14 AM CDT 8:49 PM CDT
Astronomical Twilight 5:41 AM CDT 9:23 PM CDT
Moon 11:22 AM CDT (3/29) 1:43 AM CDT (3/29)
Length of Visible Light 13h 29m
Length of Day
12h 34m
Waxing Crescent, 39% of the Moon is Illuminated
Mar 29
Waxing Crescent
Mar 30
First Quarter
Apr 6
Full
Apr 13
Last Quarter
Apr 21
New

Hourly Weather History & Observations

Time (CDT) Temp. Dew Point Humidity Pressure Visibility Wind Dir Wind Speed Gust Speed Precip Events Conditions
12:54 AM 64.0 °F 42.1 °F 45% 29.86 in 10.0 mi ESE 12.7 mph - N/A   Mostly Cloudy
1:54 AM 63.0 °F 43.0 °F 48% 29.85 in 10.0 mi East 10.4 mph - N/A   Mostly Cloudy
2:54 AM 62.1 °F 44.1 °F 52% 29.85 in 10.0 mi East 10.4 mph - N/A   Overcast
3:54 AM 61.0 °F 44.1 °F 54% 29.84 in 10.0 mi ESE 17.3 mph 23.0 mph N/A   Overcast
4:17 AM 60.8 °F 44.6 °F 55% 29.86 in 10.0 mi ESE 15.0 mph - N/A   Overcast
4:24 AM 60.8 °F 44.6 °F 55% 29.86 in 10.0 mi ESE 16.1 mph 23.0 mph N/A   Overcast
4:54 AM 61.0 °F 44.1 °F 54% 29.83 in 10.0 mi ESE 17.3 mph 27.6 mph N/A   Overcast
5:54 AM 59.0 °F 46.9 °F 64% 29.83 in 10.0 mi ESE 13.8 mph 25.3 mph N/A   Overcast
6:54 AM 57.9 °F 48.9 °F 72% 29.83 in 10.0 mi ESE 16.1 mph - N/A   Overcast
7:13 AM 57.2 °F 48.2 °F 72% 29.85 in 10.0 mi ESE 12.7 mph 21.9 mph N/A   Overcast
7:54 AM 57.9 °F 50.0 °F 75% 29.83 in 10.0 mi ESE 12.7 mph - N/A   Overcast
8:37 AM 57.2 °F 51.8 °F 82% 29.85 in 10.0 mi ESE 12.7 mph - N/A   Overcast
8:54 AM 57.9 °F 52.0 °F 81% 29.83 in 10.0 mi ESE 9.2 mph - N/A   Overcast
9:54 AM 59.0 °F 54.0 °F 83% 29.82 in 9.0 mi ESE 11.5 mph - N/A   Overcast
10:54 AM 62.1 °F 55.9 °F 80% 29.79 in 9.0 mi SE 12.7 mph - N/A   Overcast
11:54 AM 63.0 °F 57.0 °F 81% 29.77 in 9.0 mi SE 17.3 mph - N/A   Overcast
12:54 PM 62.1 °F 57.0 °F 84% 29.76 in 8.0 mi SE 13.8 mph - N/A   Overcast
1:54 PM 64.9 °F 59.0 °F 81% 29.73 in 7.0 mi SE 15.0 mph - N/A   Overcast
2:54 PM 68.0 °F 60.1 °F 76% 29.71 in 7.0 mi SE 10.4 mph - N/A   Overcast
3:18 PM 68.0 °F 60.8 °F 78% 29.73 in 7.0 mi SE 5.8 mph - N/A   Overcast
3:54 PM 69.1 °F 60.1 °F 73% 29.70 in 7.0 mi ESE 5.8 mph - N/A   Overcast
4:54 PM 72.0 °F 61.0 °F 68% 29.67 in 8.0 mi Variable 6.9 mph - N/A   Mostly Cloudy
5:25 PM 69.8 °F 60.8 °F 73% 29.69 in 8.0 mi ENE 8.1 mph - N/A   Mostly Cloudy
5:54 PM 70.0 °F 61.0 °F 73% 29.66 in 8.0 mi ENE 8.1 mph - N/A   Mostly Cloudy
6:54 PM 68.0 °F 60.1 °F 76% 29.65 in 8.0 mi NNE 12.7 mph - N/A   Mostly Cloudy
7:54 PM 64.0 °F 57.9 °F 80% 29.65 in 6.0 mi North 11.5 mph - N/A   Haze
8:54 PM 63.0 °F 57.9 °F 84% 29.68 in 6.0 mi North 12.7 mph - N/A   Haze
9:54 PM 61.0 °F 57.9 °F 90% 29.68 in 4.0 mi North 12.7 mph - N/A   Clear
10:37 PM 60.8 °F 57.2 °F 88% 29.71 in 4.0 mi NW 5.8 mph - N/A   Partly Cloudy
10:54 PM 59.0 °F 57.0 °F 93% 29.71 in 3.0 mi WNW 8.1 mph - N/A   Mostly Cloudy
11:51 PM 57.2 °F 57.2 °F 100% 29.74 in 4.0 mi North 3.5 mph - N/A   Overcast
11:54 PM 57.9 °F 57.0 °F 97% 29.73 in 4.0 mi North 3.5 mph - N/A   Overcast